Regional Weather Roundup
Issued by NWS

Home | Current Version | Previous Version | Text Only | Print | Product List | Glossary On
Versions: 1 2 3 4 5 6 7 8 9 10 11 12 13 14 15 16 17 18 19 20 21 22 23 24 25 26 27 28 29 30 31 32 33 34 35 36 37 38 39 40 41 42 43 44 45 46 47 48 49 50
000
ASUS43 KTOP 161059
RWRKS

WEATHER ROUNDUP FOR KANSAS
NATIONAL WEATHER SERVICE GOODLAND KS
500 AM CST TUE JAN 16 2018

NOTE:  "FAIR" INDICATES FEW OR NO CLOUDS BELOW 12,000 FEET WITH NO
SIGNIFICANT WEATHER AND/OR OBSTRUCTIONS TO VISIBILITY.

KSZ001>006-013>018-027>032-041>047-161200-
NORTHWEST KANSAS

CITY           SKY/WX    TMP DP  RH WIND       PRES   REMARKS
GOODLAND       CLEAR     -1  -7  75 NW9       30.60F
HAYS           CLEAR      0  -7  72 NW10      30.73S WCI -16
HILL CITY      CLEAR     -1  -8  72 NW10      30.73S WCI -17
RUSSELL        CLEAR    N/A N/A N/A N14       30.71F
$$

KSZ061>065-074>080-084>089-161200-
SOUTHWEST KANSAS

CITY           SKY/WX    TMP DP  RH WIND       PRES   REMARKS
DODGE CITY     CLEAR     -1  -8  72 NW13      30.68F WCI -19
GARDEN CITY    CLOUDY    -1  -9  68 NW13      30.67F WCI -19
GREAT BEND     CLEAR     -3  -8  79 NW8       30.73F
LIBERAL        CLOUDY    -3  -9  75 NW9       30.69F
$$

KSZ066>073-081>083-090>101-161200-
SOUTHEAST KANSAS

CITY           SKY/WX    TMP DP  RH WIND       PRES   REMARKS
CHANUTE        CLEAR      1  -7  68 N9        30.74S
COFFEYVILLE    CLEAR      3  -5  69 N6        30.78R
HUTCHINSON     CLEAR      0  -6  76 NW12      30.73F WCI -17
MEDICINE LODGE   N/A      1  -5  75 NW7       30.76S
NEWTON         CLEAR      1  -5  75 NW13      30.73S WCI -17
PARSONS          N/A      2  -6  69 N8        30.76S
WICHITA INTL   CLEAR      4  -4  69 N14       30.75S WCI -14
WICHITA JABRA  CLEAR      2  -4  76 NW13      30.73S WCI -15
WICHITA MCCONL CLEAR      4  -5  67 N10       30.73S WCI -12
WINFIELD       PTCLDY     2  -4  76 NW6       30.77S
$$

KSZ007>012-019>026-033>040-048>060-102>105-161200-
NORTHEAST KANSAS

CITY           SKY/WX    TMP DP  RH WIND       PRES   REMARKS
CONCORDIA      PTCLDY    -1  -8  72 NW12      30.73S WCI -18
EMPORIA        CLEAR      0  -7  72 NW13      30.73S WCI -18
LAWRENCE       CLEAR     -5 -11  75 W6        30.74S
MANHATTAN      PTCLDY    -2  -8  76 W3        30.77S
OLATHE IND     CLEAR     -3  -9  75 NW10      30.71S WCI -20
OLATHE EXE     CLEAR     -4 -10  75 NW10      30.69S WCI -21
SALINA         CLEAR      3  -5  69 NW14      30.77S WCI -15
TOPEKA BILLARD CLEAR     -1  -8  72 W8        30.76S
TOPEKA FORBES  CLEAR     -1  -9  68 NW13      30.72F WCI -19
$$



USA.gov is the U.S. government's official web portal to all federal, state and local government web resources and services.